{"data":{"norad_id":40716,"epoch":"2026-05-25T04:39:42.114816Z","epoch_age_seconds":61700,"freshness":"FRESH","line1":"1 40716U 15032B   26145.19423744  .00001076  00000+0  12986-3 0  9993","line2":"2 40716  97.6546  12.8254 0007195 125.0167 235.1725 14.85714519586495","mean_motion":14.85714519,"eccentricity":0.0007195,"inclination_deg":97.6546,"raan_deg":12.8254,"arg_perigee_deg":125.0167,"mean_anomaly_deg":235.1725,"bstar":0.00012986,"rev_number":58649,"period_min":96.923061704292,"perigee_km":606.31508486167,"apogee_km":616.37294804435,"semimajor_km":6989.481016453,"source":"CELESTRAK","updated_at":"2026-05-25T13:38:13.164162Z"}}